Overview Statistics Trail Chart Weather Telemetry Raw packets
 

This is the latest recevied weather packets stored in our database for station/object KQ7A. If no packets are shown the sender has not sent any weather packets the latest 10 day(s).

<< 41 42 43 44 45 46 47 >>
Time Temp. Humidity Pressure Rain* Wind** Luminosity Snow
1788398908 17.78° C 34% 1017.6 hPa 0 mm - 25 W/m² -
1788398601 17.78° C 33% 1017.5 hPa 0 mm - 29 W/m² -
1788398300 17.78° C 32% 1017.4 hPa 0 mm - 29 W/m² -
1788397995 18.33° C 30% 1017.4 hPa 0 mm - 31 W/m² -
1788397690 18.33° C 31% 1017.5 hPa 0 mm - 32 W/m² -
1788397386 18.33° C 32% 1017.4 hPa 0 mm - 35 W/m² -
1788397084 18.33° C 32% 1017.5 hPa 0 mm - 38 W/m² -
1788396779 18.89° C 29% 1017.3 hPa 0 mm - 39 W/m² -
1788396475 18.33° C 30% 1017.1 hPa 0 mm - 40 W/m² -
1788396171 18.33° C 31% 1017.5 hPa 0 mm - 41 W/m² -
1788395866 18.89° C 30% 1017.3 hPa 0 mm - 46 W/m² -
1788395560 19.44° C 29% 1017.3 hPa 0 mm - 239 W/m² -
1788395255 19.44° C 29% 1017.4 hPa 0 mm - 258 W/m² -
1788394949 20° C 28% 1017.5 hPa 0 mm - 278 W/m² -
1788394645 19.44° C 27% 1017 hPa 0 mm - 293 W/m² -
1788394339 20° C 28% 1017.5 hPa 0 mm - 333 W/m² -
1788394034 20.56° C 29% 1017.4 hPa 0 mm - 318 W/m² -
1788393734 20.56° C 27% 1017.4 hPa 0 mm - 347 W/m² -
1788393433 20.56° C 26% 1017.3 hPa 0 mm - 370 W/m² -
1788393128 20.56° C 26% 1017.4 hPa 0 mm - 390 W/m² -
1788392827 20.56° C 25% 1017.3 hPa 0 mm - 400 W/m² -
1788392526 20° C 26% 1017.4 hPa 0 mm - 410 W/m² -
1788392221 20.56° C 27% 1017.4 hPa 0 mm - 432 W/m² -
1788391921 20.56° C 28% 1017.4 hPa 0 mm - 442 W/m² -
1788391620 20.56° C 27% 1017.4 hPa 0 mm - 462 W/m² -

* Rain latest hour (hover to see other rain measurements)
** Current wind speed in m/s (hover to see current wind gust speed)